Location: *
(42.0175°N, 9.4056°E)
Time: 04:16:09
(UTC+00:00)

NOSS 3-1 (C) - Pass Details

Date: 25 August 2019
Orbit: 771 x 1438 km, 63.4° (Epoch: 17 October)

Event Time Altitude Azimuth Distance (km) Brightness Sun altitude
Rises 19:59:27 0° 326° (NW) 3,938 7.9 -19.5°
Reaches altitude 10° 20:02:04 10° 331° (NNW) 3,070 7.1 -19.9°
Maximum altitude 20:09:25 55° 49° (NE) 1,514 4.4 -21.0°
Enters shadow 20:13:16 32° 110° (ESE) 2,123 4.7 -21.5°
